Temp
5 5 5 6 6 5 5 4 4 4 3 3 2 1 1 0 -0 -1 -1 -2 -2 -2 -3 -3 -4 -4 -5 -5 -5 -6 -6 -5 -6 -5 -5 -5 -5 -5 -5 -5 -4 -4 -4
4 5 5 5 5 5 4 4 3 3 2 2 1 0 0 -0 -1 -1 -2 -2 -2 -3 -3 -3 -4 -4 -5 -5 -6 -6 -6 -6 -6 -6 -5 -4 -4 -5 -6 -6 -5 -5 -4
5 5 5 5 5 4 3 3 2 2 1 1 0 0 -0 -2 -2 -1 -2 -2 -3 -3 -4 -4 -5 -5 -5 -6 -6 -6 -6 -6 -6 -7 -7 -6 -5 -6 -5 -6 -6 -6 -6
5 5 5 5 4 3 3 2 1 1 0 -0 -0 -1 -1 -2 -2 -2 -2 -3 -3 -4 -4 -5 -5 -5 -5 -5 -6 -6 -6 -7 -6 -6 -6 -7 -7 -7 -7 -6 -6 -7 -7
5 5 5 4 4 3 2 1 1 0 -0 -0 -1 -1 -1 -2 -2 -3 -3 -3 -3 -4 -4 -5 -5 -5 -5 -5 -5 -6 -6 -7 -7 -7 -7 -7 -7 -7 -7 -8 -7 -7 -7
4 5 4 4 3 3 2 1 1 0 -0 -1 -1 -1 -2 -3 -3 -3 -3 -4 -4 -4 -4 -5 -5 -5 -5 -5 -5 -5 -6 -6 -7 -7 -8 -8 -8 -8 -8 -8 -8 -8 -7
5 5 4 3 3 2 1 1 1 0 -0 -1 -1 -2 -2 -3 -3 -4 -4 -4 -5 -5 -5 -5 -5 -5 -5 -5 -6 -6 -6 -7 -8 -8 -9 -9 -9 -9 -10 -10 -9 -8 -8
5 4 4 3 2 1 1 0 0 -0 -1 -2 -2 -2 -3 -3 -4 -4 -4 -4 -4 -4 -4 -5 -5 -5 -6 -6 -6 -7 -7 -8 -9 -9 -10 -10 -10 -10 -10 -10 -10 -8 -7
4 4 3 2 1 1 1 1 0 -0 -1 -2 -2 -2 -3 -3 -4 -4 -4 -4 -4 -4 -5 -5 -5 -5 -6 -6 -7 -8 -9 -9 -10 -10 -10 -10 -10 -10 -10 -10 -9 -9 -8
4 3 3 2 1 1 1 0 -0 -1 -1 -2 -2 -3 -3 -4 -4 -4 -4 -4 -4 -4 -5 -5 -5 -6 -6 -6 -7 -9 -10 -10 -10 -10 -10 -10 -10 -10 -10 -10 -9 -9 -9
3 3 2 2 1 1 1 -0 -0 -1 -2 -2 -3 -3 -4 -4 -4 -4 -4 -4 -5 -5 -5 -6 -6 -6 -6 -7 -9 -10 -10 -10 -10 -10 -10 -10 -10 -10 -10 -10 -9 -9 -9
3 3 2 2 1 1 0 -0 -1 -1 -2 -2 -3 -3 -3 -4 -4 -4 -4 -5 -5 -5 -6 -6 -6 -6 -7 -8 -10 -10 -10 -10 -10 -10 -10 -10 -10 -10 -10 -10 -9 -9 -9
3 3 2 1 1 0 -0 -0 -1 -2 -2 -3 -3 -3 -3 -4 -4 -5 -5 -5 -5 -5 -6 -6 -7 -7 -7 -9 -10 -10 -9 -9 -10 -10 -10 -10 -10 -10 -9 -9 -9 -9 -8
3 2 1 1 0 0 -0 -1 -1 -2 -2 -3 -3 -3 -4 -4 -4 -5 -5 -5 -5 -5 -6 -6 -7 -7 -8 -11 -10 -10 -10 -10 -10 -9 -10 -10 -10 -10 -9 -9 -9 -9 -9
2 1 0 0 0 -0 -1 -1 -2 -2 -2 -3 -3 -3 -4 -4 -5 -5 -5 -5 -5 -6 -6 -6 -6 -7 -11 -11 -10 -10 -10 -10 -11 -11 -10 -10 -10 -10 -9 -9 -9 -8 -8
1 1 1 1 0 -1 -1 -2 -2 -2 -3 -3 -3 -4 -4 -4 -5 -5 -5 -5 -5 -5 -6 -6 -7 -9 -11 -11 -11 -11 -11 -11 -11 -11 -10 -10 -10 -10 -9 -9 -9 -9 -8
1 1 1 0 -0 -1 -1 -2 -2 -3 -3 -3 -3 -3 -4 -4 -5 -5 -5 -5 -5 -6 -6 -6 -7 -10 -11 -12 -11 -11 -11 -11 -11 -11 -11 -11 -11 -10 -10 -10 -9 -9 -8
2 1 1 -0 -1 -1 -2 -2 -3 -3 -3 -3 -3 -3 -4 -4 -5 -5 -5 -5 -5 -6 -6 -7 -8 -10 -10 -12 -11 -11 -11 -11 -11 -11 -11 -11 -11 -11 -10 -10 -9 -8 -8
2 1 0 -0 -1 -2 -2 -3 -3 -3 -3 -3 -4 -4 -4 -4 -5 -5 -5 -5 -5 -6 -7 -8 -8 -8 -9 -9 -11 -11 -11 -11 -11 -11 -11 -11 -11 -11 -11 -10 -9 -8 -8
1 1 -0 -1 -2 -2 -2 -3 -3 -3 -3 -4 -4 -4 -4 -5 -5 -5 -6 -5 -5 -6 -7 -8 -8 -7 -8 -8 -11 -11 -11 -12 -11 -12 -12 -12 -12 -11 -10 -10 -10 -9 -8
1 0 -1 -1 -1 -2 -2 -2 -3 -3 -3 -4 -4 -4 -4 -4 -5 -5 -5 -5 -5 -6 -7 -7 -7 -7 -8 -8 -9 -12 -11 -12 -12 -12 -12 -11 -11 -11 -10 -10 -10 -10 -9
0 -1 -1 -1 -2 -2 -2 -2 -2 -3 -3 -4 -4 -4 -4 -4 -5 -5 -5 -6 -5 -5 -6 -6 -6 -7 -7 -8 -8 -12 -11 -10 -11 -11 -12 -11 -10 -10 -10 -10 -10 -9 -8
-0 -1 -1 -1 -2 -2 -2 -2 -3 -3 -3 -3 -3 -4 -4 -4 -5 -5 -6 -7 -7 -7 -7 -7 -8 -7 -8 -9 -8 -8 -8 -9 -10 -10 -10 -10 -10 -10 -10 -10 -10 -9 -9
-0 -0 -1 -1 -2 -2 -2 -2 -3 -3 -3 -3 -3 -4 -4 -4 -5 -6 -7 -8 -7 -7 -9 -10 -10 -10 -10 -10 -8 -8 -7 -6 -7 -9 -10 -10 -11 -11 -11 -10 -10 -10 -10
-0 -1 -1 -1 -2 -2 -2 -3 -3 -3 -3 -3 -3 -3 -4 -4 -5 -7 -7 -7 -8 -8 -9 -10 -11 -10 -9 -10 -9 -8 -7 -7 -8 -9 -9 -9 -10 -11 -11 -11 -11 -10 -10
-0 -1 -1 -2 -2 -2 -2 -3 -3 -3 -3 -3 -3 -3 -3 -4 -4 -5 -7 -7 -7 -7 -7 -7 -7 -7 -7 -7 -6 -6 -6 -6 -7 -9 -11 -11 -12 -12 -13 -13 -12 -11 -11
Height
1573 1574 1577 1579 1579 1578 1578 1577 1577 1575 1573 1570 1567 1564 1561 1557 1553 1550 1547 1544 1540 1536 1532 1529 1525 1521 1518 1514 1510 1506 1502 1499 1495 1490 1487 1483 1479 1475 1476 1474 1472 1471 1469
1576 1578 1579 1580 1580 1580 1579 1578 1577 1575 1573 1570 1567 1564 1560 1556 1553 1550 1546 1542 1538 1534 1530 1527 1523 1519 1516 1512 1508 1504 1500 1498 1494 1490 1485 1481 1480 1476 1473 1470 1469 1467 1466
1577 1579 1581 1582 1581 1581 1580 1579 1578 1576 1573 1570 1567 1563 1559 1555 1552 1548 1544 1540 1536 1532 1528 1524 1521 1517 1513 1510 1506 1502 1498 1495 1492 1489 1487 1481 1477 1474 1470 1468 1465 1464 1462
1579 1580 1581 1582 1582 1582 1581 1580 1578 1576 1572 1569 1566 1562 1558 1554 1550 1547 1543 1539 1535 1531 1527 1522 1519 1515 1511 1507 1503 1500 1496 1492 1489 1487 1485 1482 1478 1474 1465 1464 1462 1459 1457
1580 1581 1582 1583 1583 1583 1582 1580 1579 1576 1572 1569 1565 1561 1557 1554 1550 1546 1541 1537 1533 1529 1524 1520 1515 1511 1507 1503 1499 1496 1492 1489 1485 1482 1479 1477 1474 1471 1467 1458 1455 1454 1453
1580 1582 1583 1584 1584 1583 1582 1581 1579 1576 1572 1569 1565 1561 1557 1553 1549 1544 1539 1534 1529 1525 1521 1517 1512 1508 1503 1499 1495 1491 1487 1483 1479 1477 1474 1471 1468 1464 1461 1456 1452 1448 1447
1581 1583 1584 1585 1584 1583 1583 1581 1579 1576 1572 1569 1565 1561 1557 1553 1548 1543 1537 1532 1527 1522 1517 1513 1508 1503 1499 1494 1490 1485 1481 1477 1473 1470 1467 1464 1460 1456 1453 1450 1446 1444 1442
1581 1583 1584 1585 1585 1584 1583 1582 1579 1575 1572 1569 1565 1561 1557 1552 1548 1543 1537 1532 1526 1520 1515 1509 1504 1499 1494 1489 1484 1480 1476 1472 1468 1463 1460 1455 1451 1448 1445 1443 1442 1439 1437
1581 1583 1585 1586 1585 1584 1584 1582 1579 1575 1572 1569 1565 1561 1556 1552 1547 1542 1537 1531 1525 1518 1512 1506 1501 1495 1490 1485 1479 1475 1470 1466 1462 1458 1453 1449 1444 1442 1439 1438 1437 1436 1434
1581 1583 1585 1586 1585 1585 1584 1581 1578 1575 1572 1569 1564 1560 1556 1552 1547 1542 1535 1529 1523 1516 1509 1503 1498 1492 1486 1480 1475 1471 1467 1462 1457 1452 1447 1444 1440 1437 1435 1434 1433 1432 1431
1581 1584 1585 1585 1585 1584 1583 1581 1578 1575 1572 1568 1563 1559 1555 1551 1546 1541 1534 1527 1521 1513 1507 1501 1495 1489 1482 1476 1471 1467 1463 1457 1452 1447 1443 1439 1436 1433 1431 1429 1428 1427 1426
1581 1583 1585 1585 1585 1584 1582 1581 1578 1575 1571 1567 1563 1559 1555 1551 1545 1539 1533 1526 1519 1512 1505 1499 1493 1486 1480 1474 1469 1464 1459 1453 1447 1441 1438 1434 1431 1428 1426 1424 1423 1422 1421
1581 1583 1585 1585 1585 1583 1582 1580 1578 1574 1571 1567 1563 1560 1555 1550 1544 1538 1532 1525 1518 1511 1504 1498 1491 1484 1478 1471 1467 1461 1455 1449 1443 1437 1432 1429 1426 1424 1422 1420 1418 1417 1415
1581 1583 1584 1584 1584 1583 1582 1580 1577 1574 1571 1567 1564 1559 1554 1549 1544 1538 1531 1524 1517 1510 1503 1497 1490 1483 1476 1471 1465 1458 1451 1445 1438 1432 1428 1425 1422 1419 1417 1415 1413 1411 1409
1581 1583 1584 1584 1584 1583 1582 1580 1577 1574 1571 1567 1563 1559 1554 1549 1543 1537 1530 1524 1516 1510 1503 1497 1490 1482 1476 1470 1463 1455 1448 1440 1434 1429 1425 1421 1417 1415 1412 1409 1407 1405 1402
1581 1583 1584 1584 1584 1583 1582 1580 1577 1574 1571 1568 1564 1559 1554 1549 1543 1536 1530 1523 1517 1510 1504 1497 1489 1481 1475 1468 1462 1453 1444 1437 1430 1424 1420 1416 1412 1409 1405 1402 1399 1397 1394
1581 1582 1584 1584 1584 1584 1582 1580 1578 1575 1572 1568 1564 1559 1554 1548 1542 1536 1530 1523 1516 1510 1504 1497 1489 1482 1475 1467 1460 1450 1442 1434 1428 1422 1416 1412 1407 1402 1398 1394 1391 1388 1385
1580 1583 1584 1585 1585 1584 1582 1580 1578 1575 1572 1568 1564 1558 1553 1548 1542 1536 1530 1524 1518 1511 1504 1497 1490 1483 1474 1465 1458 1448 1440 1433 1427 1419 1414 1406 1402 1397 1392 1387 1383 1380 1377
1581 1583 1584 1585 1585 1584 1583 1581 1578 1575 1572 1568 1563 1558 1553 1548 1543 1537 1531 1525 1519 1513 1506 1499 1491 1483 1475 1466 1457 1447 1439 1431 1423 1417 1410 1404 1398 1393 1387 1382 1377 1374 1371
1582 1584 1585 1585 1585 1584 1583 1581 1578 1576 1572 1568 1564 1560 1555 1549 1544 1538 1532 1527 1521 1514 1508 1501 1493 1486 1477 1468 1459 1449 1438 1429 1421 1415 1408 1402 1395 1388 1383 1378 1373 1369 1366
1583 1584 1585 1585 1586 1585 1583 1582 1579 1576 1573 1569 1565 1560 1555 1550 1545 1540 1534 1528 1522 1516 1509 1502 1496 1488 1480 1471 1462 1452 1441 1432 1422 1414 1405 1399 1391 1385 1379 1374 1370 1366 1361
1583 1585 1585 1586 1586 1585 1584 1582 1580 1577 1574 1570 1566 1561 1556 1551 1546 1541 1536 1530 1524 1517 1511 1505 1498 1491 1483 1475 1464 1454 1445 1436 1424 1415 1407 1398 1389 1383 1376 1371 1366 1362 1358
1583 1585 1586 1587 1587 1586 1585 1583 1581 1578 1575 1571 1567 1562 1557 1552 1547 1542 1537 1532 1526 1520 1514 1508 1501 1493 1485 1477 1467 1457 1449 1440 1426 1417 1408 1398 1389 1381 1374 1369 1364 1359 1355
1584 1586 1587 1588 1588 1587 1586 1584 1581 1579 1576 1572 1568 1563 1558 1554 1549 1544 1540 1536 1530 1524 1519 1513 1506 1498 1490 1481 1471 1462 1453 1444 1430 1419 1409 1400 1390 1382 1374 1367 1361 1357 1353
1585 1586 1588 1588 1588 1588 1587 1585 1583 1580 1577 1573 1569 1565 1560 1556 1552 1547 1544 1540 1536 1530 1524 1519 1512 1503 1495 1488 1481 1469 1459 1448 1436 1424 1413 1402 1390 1380 1372 1366 1361 1356 1351
1585 1587 1588 1589 1589 1589 1588 1586 1584 1581 1578 1575 1571 1567 1563 1559 1555 1551 1549 1546 1541 1536 1530 1525 1518 1512 1505 1497 1487 1477 1466 1454 1441 1429 1416 1406 1397 1387 1378 1370 1362 1356 1351
Wind_Speed
21 19 14 9 6 7 7 7 7 10 12 14 17 17 17 17 17 17 18 19 20 21 22 21 21 21 20 21 20 18 17 17 17 18 19 12 11 4 10 13 15 12 11
18 15 12 8 6 6 7 8 11 14 16 17 18 17 16 17 17 18 19 21 22 22 22 21 20 20 20 19 18 17 17 16 16 16 18 12 11 8 19 7 14 15 15
19 15 10 7 8 7 9 12 13 16 18 19 19 20 20 17 19 23 24 24 23 22 22 21 20 20 20 18 18 16 16 17 16 15 12 11 8 24 7 20 12 12 13
15 13 10 8 9 10 10 10 14 17 18 20 21 23 23 21 23 24 23 23 22 23 23 22 22 22 22 21 19 18 18 16 18 17 14 15 18 19 18 16 22 19 15
14 12 9 9 9 8 9 11 15 18 18 21 23 24 24 23 23 25 26 26 25 24 24 23 24 24 24 24 23 23 21 19 19 19 19 18 18 20 23 30 26 22 18
14 11 9 8 6 8 10 12 16 18 19 21 23 24 23 24 26 28 28 28 28 28 27 26 25 26 25 25 25 26 26 24 22 20 19 19 22 26 27 27 27 27 20
14 10 8 5 6 8 9 11 15 18 19 20 22 23 24 24 26 28 29 30 30 30 29 29 29 27 25 26 27 27 25 22 21 21 23 24 25 23 23 22 22 21 19
13 10 6 3 5 7 8 11 16 19 20 20 22 24 23 24 25 28 30 30 30 30 30 29 27 26 26 26 25 24 24 24 22 22 21 20 19 18 18 18 16 19 17
14 10 6 3 5 6 8 13 15 18 19 21 22 23 23 23 27 30 30 29 29 29 29 28 27 27 27 27 26 21 21 21 19 20 19 19 18 17 16 14 15 16 17
14 11 6 3 4 5 9 11 15 18 19 20 22 23 21 23 27 30 29 29 31 31 29 28 28 29 29 29 26 19 20 21 20 19 20 19 17 15 14 14 15 15 16
15 11 6 3 2 4 7 11 15 17 19 21 22 22 21 24 28 30 31 32 33 34 29 29 31 31 31 30 24 19 20 22 23 21 18 18 16 16 14 13 13 15 15
15 10 6 2 2 4 7 11 14 16 20 20 21 21 21 25 29 31 32 34 36 33 30 31 31 31 31 27 22 22 25 25 25 23 18 17 15 16 14 13 12 13 15
15 10 6 1 1 5 8 11 14 17 20 20 20 21 23 25 29 31 33 34 36 32 31 31 32 31 31 25 23 28 28 27 24 19 18 17 15 15 12 13 16 16 16
14 10 6 3 3 5 8 11 15 18 18 18 20 22 24 26 29 31 34 34 36 32 32 31 31 30 28 23 28 30 30 26 21 19 18 17 15 14 16 18 17 16 17
14 9 6 3 4 6 8 12 15 16 17 18 20 23 24 26 29 32 34 34 34 31 30 31 30 30 25 27 32 35 31 25 22 19 18 17 17 15 16 16 18 19 21
12 9 6 4 5 6 9 13 14 16 18 19 20 23 24 27 30 32 34 34 32 30 29 30 31 29 26 30 33 34 29 25 22 23 21 19 18 17 19 18 20 20 22
12 10 6 4 5 7 9 12 14 16 18 19 21 24 25 28 30 32 33 34 32 29 29 30 30 29 28 32 36 35 28 25 24 23 21 20 19 20 21 22 22 20 19
13 9 7 5 5 6 9 12 14 15 18 20 23 25 27 29 31 32 32 33 30 28 29 29 30 30 32 34 38 38 30 26 25 22 21 21 21 21 23 23 21 19 18
12 10 7 5 5 7 9 12 12 15 18 22 25 27 27 29 31 32 32 32 30 29 27 27 31 34 34 38 39 39 33 30 27 22 20 21 21 24 21 21 20 19 17
12 9 7 5 6 7 10 12 13 15 19 23 25 25 26 29 30 31 30 30 29 28 28 29 32 36 37 38 38 38 38 34 29 23 23 22 21 19 17 17 16 17 16
11 9 7 5 6 7 11 12 13 15 19 22 23 24 26 28 28 28 29 31 31 30 32 33 34 36 38 38 38 37 41 35 29 26 26 25 20 15 13 10 11 13 14
13 9 7 6 7 8 10 12 14 16 19 21 22 24 26 27 28 27 28 30 32 33 34 36 38 38 39 41 40 38 40 40 36 37 35 31 25 19 13 11 9 7 5
13 10 7 7 8 9 11 13 15 17 19 20 22 24 25 26 27 27 27 29 31 32 33 34 37 40 42 42 43 46 45 46 49 46 44 39 34 29 22 16 15 14 13
12 10 8 8 8 11 12 14 16 18 20 22 23 24 25 26 26 25 26 27 30 32 31 31 33 37 39 42 44 46 48 49 53 56 55 52 48 42 35 28 24 23 20
13 11 9 8 9 10 11 14 16 19 20 21 23 25 26 25 23 22 26 26 27 29 28 29 29 36 39 40 40 45 49 51 53 54 56 62 62 56 48 39 33 31 27
13 12 10 9 9 9 11 14 16 19 20 22 23 26 26 25 25 24 23 26 27 28 30 31 34 34 36 40 44 47 49 53 56 58 57 58 59 56 53 49 42 37 34
Wind_Direction
127 132 121 106 80 48 29 17 14 12 5 2 360 357 356 354 352 353 351 346 343 341 339 337 334 332 333 335 336 334 332 333 331 335 331 331 336 25 335 304 286 295 272
127 126 120 102 70 38 42 40 26 15 6 7 10 8 3 360 356 354 350 348 347 344 342 338 338 338 336 340 340 338 333 330 330 333 331 328 323 301 326 341 308 286 276
136 129 120 87 58 54 52 35 21 11 14 13 8 5 4 1 359 358 355 352 348 347 346 344 341 341 338 334 336 333 333 328 329 324 322 323 310 321 310 316 314 305 287
140 132 103 76 66 56 42 26 23 13 13 9 7 5 4 5 1 355 352 350 350 347 344 339 337 333 331 329 324 325 323 323 322 321 312 296 298 308 308 307 306 303 293
146 127 107 79 62 52 41 32 19 10 12 6 3 4 5 0 356 353 352 349 347 348 346 339 335 332 328 326 322 321 313 309 309 315 309 298 294 295 294 300 305 303 291
152 138 109 77 66 52 36 30 14 10 6 2 2 2 0 359 356 352 350 348 347 345 345 339 335 331 326 323 320 317 314 306 304 305 304 296 294 293 291 289 291 294 295
160 139 118 90 64 52 37 24 10 6 5 1 360 1 360 356 354 353 349 346 344 342 340 337 334 332 327 322 318 316 312 306 304 304 301 296 290 286 282 278 281 287 292
162 151 134 97 70 51 32 15 9 7 3 2 1 359 356 357 357 353 349 347 343 340 338 336 335 333 328 326 324 319 315 311 310 307 305 299 292 287 285 279 275 286 291
167 160 152 106 70 45 23 10 4 5 4 1 357 358 359 360 357 355 353 352 349 346 343 342 341 341 337 332 328 322 321 322 320 313 310 310 308 302 296 285 278 270 283
170 167 157 125 63 26 22 10 4 3 1 358 358 359 360 359 357 356 356 357 356 352 348 347 347 345 342 340 334 326 327 327 324 319 317 317 316 308 300 286 281 277 272
169 166 162 124 82 35 6 5 2 360 358 358 358 359 359 358 356 358 358 357 356 353 353 351 350 348 346 346 345 340 333 330 326 325 318 316 317 308 303 294 283 279 273
164 166 158 125 36 14 8 2 358 357 357 357 359 359 357 355 356 359 359 356 356 357 355 354 352 350 349 350 348 342 336 333 328 324 318 317 312 311 310 302 289 278 281
165 170 170 148 88 10 11 360 357 355 354 356 359 359 357 356 357 357 358 357 356 358 357 355 354 352 351 351 347 343 339 331 325 319 320 317 313 310 308 309 303 291 274
169 172 165 150 26 32 8 360 355 353 353 359 359 358 358 356 356 356 358 358 358 359 358 357 356 355 355 352 349 343 339 333 327 329 323 317 311 307 313 304 297 289 279
170 168 155 112 60 27 10 360 353 356 1 359 358 358 357 356 356 357 358 360 1 1 0 359 0 358 356 357 351 345 341 335 333 330 324 316 310 303 294 293 289 283 281
160 154 146 89 59 28 13 358 2 5 3 360 357 356 358 357 357 359 360 2 4 4 3 4 3 359 358 357 353 348 344 340 336 333 331 325 320 313 305 301 293 287 281
153 149 132 95 60 33 9 7 9 4 3 1 1 1 0 359 359 360 3 6 7 7 7 9 4 2 357 359 354 352 349 344 340 336 333 331 326 320 319 315 305 299 292
152 139 119 87 60 25 15 14 5 3 3 3 6 4 2 1 0 3 6 9 9 12 12 8 6 5 1 1 356 356 353 350 346 342 338 332 327 327 325 314 308 305 300
138 132 112 83 57 29 20 10 3 3 4 8 7 2 360 360 2 5 7 10 12 17 14 10 9 8 6 8 1 1 357 354 349 347 342 339 335 333 325 315 310 307 303
132 125 111 90 52 31 19 12 4 4 8 10 4 359 360 1 4 6 8 13 15 16 14 14 14 14 11 12 6 6 5 359 356 352 348 347 343 335 327 321 315 310 305
130 123 109 81 53 38 25 12 11 10 11 6 1 0 2 4 7 8 11 17 19 20 19 20 18 18 17 14 13 8 12 7 4 0 359 360 358 350 343 338 332 314 302
130 117 98 83 67 42 28 22 16 17 13 6 5 5 5 7 11 12 16 20 21 22 21 21 22 23 19 20 20 15 21 23 24 21 18 16 18 14 9 7 359 342 331
127 115 102 90 68 48 38 29 26 21 15 8 10 11 11 13 15 15 19 20 20 20 18 17 17 22 21 20 24 28 32 28 34 31 30 28 27 26 24 26 26 32 24
125 117 111 95 74 56 38 34 30 25 16 15 17 17 19 18 17 19 23 22 21 21 17 14 13 17 19 19 24 29 30 32 35 33 31 28 29 28 28 28 30 33 33
130 124 113 95 79 58 39 34 31 25 21 22 23 23 22 23 25 27 30 31 30 26 22 18 17 19 22 23 31 33 33 32 34 32 32 29 25 22 25 27 29 30 32
134 126 113 99 78 58 40 34 31 28 26 29 28 27 27 32 36 44 48 41 40 37 37 35 36 37 37 38 38 38 37 37 34 32 25 22 20 17 15 16 23 29 30